Year,Month,Day,Hour,Minute,Value (Times are PST for temperature in C)
2018,02,21,00,00,-4.70
2018,02,21,00,01,-4.70
2018,02,21,00,02,-4.70
2018,02,21,00,03,-4.80
2018,02,21,00,04,-4.80
2018,02,21,00,05,-4.90
2018,02,21,00,06,-4.90
2018,02,21,00,07,-4.90
2018,02,21,00,08,-5.00
2018,02,21,00,09,-5.00
2018,02,21,00,10,-5.00
2018,02,21,00,11,-5.10
2018,02,21,00,12,-5.10
2018,02,21,00,13,-5.10
2018,02,21,00,14,-5.10
2018,02,21,00,15,-5.10
2018,02,21,00,16,-5.10
2018,02,21,00,17,-5.10
2018,02,21,00,18,-5.10
2018,02,21,00,19,-5.10
2018,02,21,00,20,-5.10
2018,02,21,00,21,-5.20
2018,02,21,00,22,-5.20
2018,02,21,00,23,-5.20
2018,02,21,00,24,-5.20
2018,02,21,00,25,-5.20
2018,02,21,00,26,-5.20
2018,02,21,00,27,-5.20
2018,02,21,00,28,-5.30
2018,02,21,00,29,-5.30
2018,02,21,00,30,-5.30
2018,02,21,00,31,-5.30
2018,02,21,00,32,-5.30
2018,02,21,00,33,-5.40
2018,02,21,00,34,-5.40
2018,02,21,00,35,-5.40
2018,02,21,00,36,-5.40
2018,02,21,00,37,-5.50
2018,02,21,00,38,-5.50
2018,02,21,00,39,-5.50
2018,02,21,00,40,-5.50
2018,02,21,00,41,-5.60
2018,02,21,00,42,-5.60
2018,02,21,00,43,-5.60
2018,02,21,00,44,-5.60
2018,02,21,00,45,-5.60
2018,02,21,00,46,-5.60
2018,02,21,00,47,-5.60
2018,02,21,00,48,-5.70
2018,02,21,00,49,-5.70
2018,02,21,00,50,-5.70
2018,02,21,00,51,-5.70
2018,02,21,00,52,-5.70
2018,02,21,00,53,-5.70
2018,02,21,00,54,-5.70
2018,02,21,00,55,-5.70
2018,02,21,00,56,-5.70
2018,02,21,00,57,-5.70
2018,02,21,00,58,-5.70
2018,02,21,00,59,-5.70
2018,02,21,01,00,-5.70
2018,02,21,01,01,-5.70
2018,02,21,01,02,-5.70
2018,02,21,01,03,-5.70
2018,02,21,01,04,-5.70
2018,02,21,01,05,-5.70
2018,02,21,01,06,-5.70
2018,02,21,01,07,-5.70
2018,02,21,01,08,-5.80
2018,02,21,01,09,-5.80
2018,02,21,01,10,-5.80
2018,02,21,01,11,-5.80
2018,02,21,01,12,-5.80
2018,02,21,01,13,-5.80
2018,02,21,01,14,-5.80
2018,02,21,01,15,-5.80
2018,02,21,01,16,-5.80
2018,02,21,01,17,-5.80
2018,02,21,01,18,-5.80
2018,02,21,01,19,-5.80
2018,02,21,01,20,-5.80
2018,02,21,01,21,-5.70
2018,02,21,01,22,-5.70
2018,02,21,01,23,-5.70
2018,02,21,01,24,-5.70
2018,02,21,01,25,-5.70
2018,02,21,01,26,-5.70
2018,02,21,01,27,-5.70
2018,02,21,01,28,-5.70
2018,02,21,01,29,-5.70
2018,02,21,01,30,-5.70
2018,02,21,01,31,-5.70
2018,02,21,01,32,-5.70
2018,02,21,02,06,-5.80
2018,02,21,02,07,-5.80
2018,02,21,02,08,-5.70
2018,02,21,02,09,-5.70
2018,02,21,02,10,-5.70
2018,02,21,02,11,-5.70
2018,02,21,02,12,-5.70
2018,02,21,02,13,-5.70
2018,02,21,02,14,-5.70
2018,02,21,02,15,-5.70
2018,02,21,02,16,-5.80
2018,02,21,02,17,-5.80
2018,02,21,02,18,-5.80
2018,02,21,02,19,-5.80
2018,02,21,02,20,-5.80
2018,02,21,02,21,-5.80
2018,02,21,02,22,-5.80
2018,02,21,02,23,-5.90
2018,02,21,02,24,-5.90
2018,02,21,02,25,-5.90
2018,02,21,02,26,-5.90
2018,02,21,02,27,-5.90
2018,02,21,02,28,-5.90
2018,02,21,02,29,-5.90
2018,02,21,02,30,-5.90
2018,02,21,02,31,-5.90
2018,02,21,02,32,-5.90
2018,02,21,02,33,-5.80
2018,02,21,02,34,-5.80
2018,02,21,02,35,-5.80
2018,02,21,02,36,-5.80
2018,02,21,02,37,-5.80
2018,02,21,02,38,-5.80
2018,02,21,02,39,-5.80
2018,02,21,02,40,-5.80
2018,02,21,02,41,-5.80
2018,02,21,02,42,-5.80
2018,02,21,02,43,-5.90
2018,02,21,02,44,-5.90
2018,02,21,02,45,-5.90
2018,02,21,02,46,-5.90
2018,02,21,02,47,-5.90
2018,02,21,02,48,-5.90
2018,02,21,02,49,-5.90
2018,02,21,02,50,-5.90
2018,02,21,02,51,-6.00
2018,02,21,02,52,-5.90
2018,02,21,02,53,-6.00
2018,02,21,02,54,-6.00
2018,02,21,02,55,-6.00
2018,02,21,02,56,-6.00
2018,02,21,02,57,-6.00
2018,02,21,02,58,-6.00
2018,02,21,02,59,-6.10
2018,02,21,03,00,-6.10
2018,02,21,03,01,-6.10
2018,02,21,03,02,-6.10
2018,02,21,03,03,-6.10
2018,02,21,03,04,-6.10
2018,02,21,03,05,-6.10
2018,02,21,03,06,-6.10
2018,02,21,03,07,-6.10
2018,02,21,03,08,-6.10
2018,02,21,03,09,-6.10
2018,02,21,03,10,-6.00
2018,02,21,03,11,-6.00
2018,02,21,03,12,-6.00
2018,02,21,03,13,-6.00
2018,02,21,03,14,-5.90
2018,02,21,03,15,-5.90
2018,02,21,03,16,-5.90
2018,02,21,03,17,-5.90
2018,02,21,03,18,-5.90
2018,02,21,03,19,-5.90
2018,02,21,03,20,-5.90
2018,02,21,03,21,-5.90
2018,02,21,03,22,-5.90
2018,02,21,03,23,-5.90
2018,02,21,03,24,-5.90
2018,02,21,03,25,-5.90
2018,02,21,03,26,-5.90
2018,02,21,03,27,-6.00
2018,02,21,03,28,-6.00
2018,02,21,03,29,-6.00
2018,02,21,03,30,-6.00
2018,02,21,03,31,-6.00
2018,02,21,03,32,-6.10
2018,02,21,03,33,-6.10
2018,02,21,03,34,-6.00
2018,02,21,03,35,-6.00
2018,02,21,03,36,-6.00
2018,02,21,03,37,-6.00
2018,02,21,03,38,-6.00
2018,02,21,03,39,-6.00
2018,02,21,03,40,-6.00
2018,02,21,03,41,-6.00
2018,02,21,03,42,-6.00
2018,02,21,03,43,-6.00
2018,02,21,03,44,-6.00
2018,02,21,03,45,-6.00
2018,02,21,03,46,-6.00
2018,02,21,03,47,-6.00
2018,02,21,03,48,-6.00
2018,02,21,03,49,-6.00
2018,02,21,03,50,-6.00
2018,02,21,03,51,-6.00
2018,02,21,03,52,-6.00
2018,02,21,03,53,-6.10
2018,02,21,03,54,-6.10
2018,02,21,03,55,-6.10
2018,02,21,03,56,-6.10
2018,02,21,03,57,-6.10
2018,02,21,03,58,-6.10
2018,02,21,03,59,-6.10
2018,02,21,04,00,-6.00
2018,02,21,04,01,-6.00
2018,02,21,04,02,-6.00
2018,02,21,04,03,-6.00
2018,02,21,04,04,-6.00
2018,02,21,04,05,-6.00
2018,02,21,04,06,-5.90
2018,02,21,04,07,-5.90
2018,02,21,04,08,-5.90
2018,02,21,04,09,-5.80
2018,02,21,04,10,-5.80
2018,02,21,04,11,-5.80
2018,02,21,04,12,-5.80
2018,02,21,04,13,-5.70
2018,02,21,04,14,-5.70
2018,02,21,04,15,-5.70
2018,02,21,04,16,-5.70
2018,02,21,04,17,-5.60
2018,02,21,04,18,-5.60
2018,02,21,04,19,-5.60
2018,02,21,04,20,-5.60
2018,02,21,04,21,-5.60
2018,02,21,04,22,-5.60
2018,02,21,04,23,-5.60
2018,02,21,04,24,-5.60
2018,02,21,04,25,-5.60
2018,02,21,04,26,-5.60
2018,02,21,04,27,-5.60
2018,02,21,04,28,-5.60
2018,02,21,04,29,-5.60
2018,02,21,04,30,-5.60
2018,02,21,04,31,-5.60
2018,02,21,04,32,-5.60
2018,02,21,04,33,-5.60
2018,02,21,04,34,-5.60
2018,02,21,04,35,-5.60
2018,02,21,04,36,-5.60
2018,02,21,04,37,-5.60
2018,02,21,04,38,-5.60
2018,02,21,04,39,-5.60
2018,02,21,04,40,-5.60
2018,02,21,04,41,-5.60
2018,02,21,04,42,-5.50
2018,02,21,04,43,-5.50
2018,02,21,04,44,-5.50
2018,02,21,04,45,-5.50
2018,02,21,04,46,-5.50
2018,02,21,04,47,-5.50
2018,02,21,04,48,-5.40
2018,02,21,04,49,-5.40
2018,02,21,04,50,-5.40
2018,02,21,04,51,-5.40
2018,02,21,04,52,-5.40
2018,02,21,04,53,-5.50
2018,02,21,04,54,-5.50
2018,02,21,04,55,-5.50
2018,02,21,04,56,-5.50
2018,02,21,04,57,-5.50
2018,02,21,04,58,-5.50
2018,02,21,04,59,-5.50
2018,02,21,05,00,-5.50
2018,02,21,05,01,-5.50
2018,02,21,05,02,-5.50
2018,02,21,05,03,-5.50
2018,02,21,05,04,-5.50
2018,02,21,05,05,-5.50
2018,02,21,05,06,-5.50
2018,02,21,05,07,-5.50
2018,02,21,05,08,-5.50
2018,02,21,05,09,-5.50
2018,02,21,05,10,-5.50
2018,02,21,05,11,-5.50
2018,02,21,05,12,-5.50
2018,02,21,05,13,-5.50
2018,02,21,05,14,-5.40
2018,02,21,05,15,-5.40
2018,02,21,05,16,-5.40
2018,02,21,05,17,-5.40
2018,02,21,05,18,-5.40
2018,02,21,05,19,-5.40
2018,02,21,05,20,-5.40
2018,02,21,05,21,-5.40
2018,02,21,05,22,-5.40
2018,02,21,05,23,-5.40
2018,02,21,05,24,-5.40
2018,02,21,05,25,-5.40
2018,02,21,05,26,-5.40
2018,02,21,05,27,-5.40
2018,02,21,05,28,-5.30
2018,02,21,05,29,-5.30
2018,02,21,05,30,-5.30
2018,02,21,05,31,-5.30
2018,02,21,05,32,-5.20
2018,02,21,05,33,-5.20
2018,02,21,05,34,-5.20
2018,02,21,05,35,-5.20
2018,02,21,05,36,-5.10
2018,02,21,05,37,-5.10
2018,02,21,05,38,-5.10
2018,02,21,05,39,-5.10
2018,02,21,05,40,-5.10
2018,02,21,05,41,-5.10
2018,02,21,05,42,-5.10
2018,02,21,05,43,-5.10
2018,02,21,05,44,-5.10
2018,02,21,05,45,-5.10
2018,02,21,05,46,-5.10
2018,02,21,05,47,-5.10
2018,02,21,05,48,-5.10
2018,02,21,05,49,-5.00
2018,02,21,05,50,-5.00
2018,02,21,05,51,-5.00
2018,02,21,05,52,-5.00
2018,02,21,05,53,-5.00
2018,02,21,05,54,-4.90
2018,02,21,05,55,-4.90
2018,02,21,05,56,-4.90
2018,02,21,05,57,-4.90
2018,02,21,05,58,-4.90
2018,02,21,05,59,-4.90
2018,02,21,06,00,-4.90
2018,02,21,06,01,-4.90
2018,02,21,06,02,-4.80
2018,02,21,06,03,-4.80
2018,02,21,06,04,-4.90
2018,02,21,06,05,-4.90
2018,02,21,06,06,-4.90
2018,02,21,06,07,-4.90
2018,02,21,06,08,-4.90
2018,02,21,06,09,-4.80
2018,02,21,06,10,-4.80
2018,02,21,06,11,-4.80
2018,02,21,06,12,-4.80
2018,02,21,06,13,-4.80
2018,02,21,06,14,-4.80
2018,02,21,06,15,-4.80
2018,02,21,06,16,-4.80
2018,02,21,06,17,-4.80
2018,02,21,06,18,-4.70
2018,02,21,06,19,-4.70
2018,02,21,06,20,-4.70
2018,02,21,06,21,-4.70
2018,02,21,06,22,-4.70
2018,02,21,06,23,-4.70
2018,02,21,06,24,-4.70
2018,02,21,06,25,-4.70
2018,02,21,06,26,-4.70
2018,02,21,06,27,-4.70
2018,02,21,06,28,-4.70
2018,02,21,06,29,-4.70
2018,02,21,06,30,-4.70
2018,02,21,06,31,-4.70
2018,02,21,06,32,-4.80
2018,02,21,06,33,-4.80
2018,02,21,06,34,-4.80
2018,02,21,06,35,-4.80
2018,02,21,06,36,-4.80
2018,02,21,06,37,-4.80
2018,02,21,06,38,-4.80
2018,02,21,06,39,-4.80
2018,02,21,06,40,-4.80
2018,02,21,06,41,-4.80
2018,02,21,06,42,-4.80
2018,02,21,06,43,-4.80
2018,02,21,06,44,-4.80
2018,02,21,06,45,-4.80
2018,02,21,06,46,-4.80
2018,02,21,06,47,-4.80
2018,02,21,06,48,-4.80
2018,02,21,06,49,-4.80
2018,02,21,06,50,-4.70
2018,02,21,06,51,-4.70
2018,02,21,06,52,-4.70
2018,02,21,06,53,-4.70
2018,02,21,06,54,-4.60
2018,02,21,06,55,-4.60
2018,02,21,06,56,-4.60
2018,02,21,06,57,-4.60
2018,02,21,06,58,-4.60
2018,02,21,06,59,-4.60
2018,02,21,07,00,-4.60
2018,02,21,07,01,-4.60
2018,02,21,07,02,-4.50
2018,02,21,07,03,-4.50
2018,02,21,07,04,-4.50
2018,02,21,07,05,-4.50
2018,02,21,07,06,-4.50
2018,02,21,07,07,-4.50
2018,02,21,07,08,-4.50
2018,02,21,07,09,-4.50
2018,02,21,07,10,-4.50
2018,02,21,07,11,-4.50
2018,02,21,07,12,-4.50
2018,02,21,07,13,-4.50
2018,02,21,07,14,-4.50
2018,02,21,07,15,-4.50
2018,02,21,07,16,-4.50
2018,02,21,07,17,-4.50
2018,02,21,07,18,-4.50
2018,02,21,07,19,-4.50
2018,02,21,07,20,-4.50
2018,02,21,07,21,-4.50
2018,02,21,07,22,-4.50
2018,02,21,07,23,-4.50
2018,02,21,07,24,-4.50
2018,02,21,07,25,-4.40
2018,02,21,07,26,-4.50
2018,02,21,07,27,-4.40
2018,02,21,07,28,-4.50
2018,02,21,07,29,-4.40
2018,02,21,07,30,-4.40
2018,02,21,07,31,-4.40
2018,02,21,07,32,-4.40
2018,02,21,07,33,-4.40
2018,02,21,07,34,-4.40
2018,02,21,07,35,-4.40
2018,02,21,07,36,-4.40
2018,02,21,07,37,-4.40
2018,02,21,07,38,-4.40
2018,02,21,07,39,-4.40
2018,02,21,07,40,-4.40
2018,02,21,07,41,-4.40
2018,02,21,07,42,-4.30
2018,02,21,07,43,-4.40
2018,02,21,07,44,-4.30
2018,02,21,07,45,-4.30
2018,02,21,07,46,-4.30
2018,02,21,07,47,-4.30
2018,02,21,07,48,-4.30
2018,02,21,07,49,-4.30
2018,02,21,07,50,-4.30
2018,02,21,07,51,-4.30
2018,02,21,07,52,-4.20
2018,02,21,07,53,-4.20
2018,02,21,07,54,-4.20
2018,02,21,07,55,-4.20
2018,02,21,07,56,-4.20
2018,02,21,07,57,-4.20
2018,02,21,07,58,-4.20
2018,02,21,07,59,-4.20
2018,02,21,08,00,-4.20
2018,02,21,08,01,-4.20
2018,02,21,08,02,-4.10
2018,02,21,08,03,-4.10
2018,02,21,08,04,-4.10
2018,02,21,08,05,-4.10
2018,02,21,08,06,-4.10
2018,02,21,08,07,-4.10
2018,02,21,08,08,-4.10
2018,02,21,08,09,-4.10
2018,02,21,08,10,-4.10
2018,02,21,08,11,-4.10
2018,02,21,08,12,-4.10
2018,02,21,08,13,-4.10
2018,02,21,08,14,-4.10
2018,02,21,08,15,-4.10
2018,02,21,08,16,-4.10
2018,02,21,08,17,-4.00
2018,02,21,08,18,-4.00
2018,02,21,08,19,-4.00
2018,02,21,08,20,-4.00
2018,02,21,08,21,-4.00
2018,02,21,08,22,-4.00
2018,02,21,08,23,-4.00
2018,02,21,08,24,-3.90
2018,02,21,08,25,-3.90
2018,02,21,08,26,-3.90
2018,02,21,08,27,-3.90
2018,02,21,08,28,-3.90
2018,02,21,08,29,-3.80
2018,02,21,08,30,-3.80
2018,02,21,08,31,-3.80
2018,02,21,08,32,-3.80
2018,02,21,08,33,-3.80
2018,02,21,08,34,-3.80
2018,02,21,08,35,-3.70
2018,02,21,08,36,-3.70
2018,02,21,08,37,-3.70
2018,02,21,08,38,-3.70
2018,02,21,08,39,-3.70
2018,02,21,08,40,-3.60
2018,02,21,08,41,-3.60
2018,02,21,08,42,-3.60
2018,02,21,08,43,-3.60
2018,02,21,08,44,-3.50
2018,02,21,08,45,-3.50
2018,02,21,08,46,-3.50
2018,02,21,08,47,-3.50
2018,02,21,08,48,-3.50
2018,02,21,08,49,-3.40
2018,02,21,08,50,-3.40
2018,02,21,08,51,-3.40
2018,02,21,08,52,-3.40
2018,02,21,08,53,-3.40
2018,02,21,08,54,-3.40
2018,02,21,08,55,-3.30
2018,02,21,08,56,-3.30
2018,02,21,08,57,-3.30
2018,02,21,08,58,-3.30
2018,02,21,08,59,-3.30
2018,02,21,09,00,-3.30
2018,02,21,09,01,-3.20
2018,02,21,09,02,-3.20
2018,02,21,09,03,-3.20
2018,02,21,09,04,-3.20
2018,02,21,09,05,-3.20
2018,02,21,09,06,-3.10
2018,02,21,09,07,-3.10
2018,02,21,09,08,-3.10
2018,02,21,09,09,-3.10
2018,02,21,09,10,-3.10
2018,02,21,09,11,-3.10
2018,02,21,09,12,-3.00
2018,02,21,09,13,-3.00
2018,02,21,09,14,-3.00
2018,02,21,09,15,-3.00
2018,02,21,09,16,-3.00
2018,02,21,09,17,-2.90
2018,02,21,09,18,-2.90
2018,02,21,09,19,-2.90
2018,02,21,09,20,-2.80
2018,02,21,09,21,-2.80
2018,02,21,09,22,-2.80
2018,02,21,09,23,-2.80
2018,02,21,09,24,-2.80
2018,02,21,09,25,-2.80
2018,02,21,09,26,-2.80
2018,02,21,09,27,-2.80
2018,02,21,09,28,-2.80
2018,02,21,09,29,-2.80
2018,02,21,09,30,-2.80
2018,02,21,09,31,-2.80
2018,02,21,09,32,-2.80
2018,02,21,09,33,-2.80
2018,02,21,09,34,-2.80
2018,02,21,09,35,-2.80
2018,02,21,09,36,-2.80
2018,02,21,09,37,-2.80
2018,02,21,09,38,-2.80
2018,02,21,09,39,-2.80
2018,02,21,09,40,-2.80
2018,02,21,09,41,-2.80
2018,02,21,09,42,-2.80
2018,02,21,09,43,-2.80
2018,02,21,09,44,-2.70
2018,02,21,09,45,-2.70
2018,02,21,09,46,-2.70
2018,02,21,09,47,-2.70
2018,02,21,09,48,-2.60
2018,02,21,09,49,-2.60
2018,02,21,09,50,-2.60
2018,02,21,09,51,-2.60
2018,02,21,09,52,-2.60
2018,02,21,09,53,-2.60
2018,02,21,09,54,-2.60
2018,02,21,09,55,-2.50
2018,02,21,09,56,-2.50
2018,02,21,09,57,-2.50
2018,02,21,09,58,-2.50
2018,02,21,09,59,-2.50
2018,02,21,10,00,-2.50
2018,02,21,10,01,-2.40
2018,02,21,10,02,-2.40
2018,02,21,10,03,-2.40
2018,02,21,10,04,-2.40
2018,02,21,10,05,-2.40
2018,02,21,10,06,-2.40
2018,02,21,10,07,-2.30
2018,02,21,10,08,-2.30
2018,02,21,10,09,-2.30
2018,02,21,10,10,-2.30
2018,02,21,10,11,-2.20
2018,02,21,10,12,-2.10
2018,02,21,10,13,-2.10
2018,02,21,10,14,-2.00
2018,02,21,10,15,-1.90
2018,02,21,10,16,-1.90
2018,02,21,10,17,-1.80
2018,02,21,10,18,-1.80
2018,02,21,10,19,-1.80
2018,02,21,10,20,-1.70
2018,02,21,10,21,-1.70
2018,02,21,10,22,-1.70
2018,02,21,10,23,-1.70
2018,02,21,10,24,-1.70
2018,02,21,10,25,-1.70
2018,02,21,10,26,-1.70
2018,02,21,10,27,-1.60
2018,02,21,10,28,-1.60
2018,02,21,10,29,-1.60
2018,02,21,10,30,-1.60
2018,02,21,10,31,-1.60
2018,02,21,10,32,-1.60
2018,02,21,10,33,-1.60
2018,02,21,10,34,-1.60
2018,02,21,10,35,-1.50
2018,02,21,10,36,-1.50
2018,02,21,10,37,-1.50
2018,02,21,10,38,-1.50
2018,02,21,10,39,-1.50
2018,02,21,10,40,-1.50
2018,02,21,10,41,-1.50
2018,02,21,10,42,-1.40
2018,02,21,10,43,-1.40
2018,02,21,10,44,-1.40
2018,02,21,10,45,-1.30
2018,02,21,10,46,-1.30
2018,02,21,10,47,-1.20
2018,02,21,10,48,-1.20
2018,02,21,10,49,-1.20
2018,02,21,10,50,-1.20
2018,02,21,10,51,-1.20
2018,02,21,10,52,-1.10
2018,02,21,10,53,-1.10
2018,02,21,10,54,-1.10
2018,02,21,10,55,-1.10
2018,02,21,10,56,-1.10
2018,02,21,10,57,-1.00
2018,02,21,10,58,-1.00
2018,02,21,10,59,-0.90
2018,02,21,11,00,-0.90
2018,02,21,11,01,-0.90
2018,02,21,11,02,-0.80
2018,02,21,11,03,-0.80
2018,02,21,11,04,-0.80
2018,02,21,11,05,-0.80
2018,02,21,11,06,-0.80
2018,02,21,11,07,-0.70
2018,02,21,11,08,-0.70
2018,02,21,11,09,-0.70
2018,02,21,11,10,-0.70
2018,02,21,11,11,-0.70
2018,02,21,11,12,-0.70
2018,02,21,11,13,-0.70
2018,02,21,11,14,-0.70
2018,02,21,11,15,-0.60
2018,02,21,11,16,-0.60
2018,02,21,11,17,-0.60
2018,02,21,11,18,-0.50
2018,02,21,11,19,-0.50
2018,02,21,11,20,-0.50
2018,02,21,11,21,-0.40
2018,02,21,11,22,-0.40
2018,02,21,11,23,-0.40
2018,02,21,11,24,-0.30
2018,02,21,11,25,-0.30
2018,02,21,11,26,-0.30
2018,02,21,11,27,-0.30
2018,02,21,11,28,-0.30
2018,02,21,11,29,-0.30
2018,02,21,11,30,-0.30
2018,02,21,11,31,-0.20
2018,02,21,11,32,-0.20
2018,02,21,11,33,-0.20
2018,02,21,11,34,-0.20
2018,02,21,11,35,-0.20
2018,02,21,11,36,-0.20
2018,02,21,11,37,-0.20
2018,02,21,11,38,-0.20
2018,02,21,11,39,-0.20
2018,02,21,11,40,-0.20
2018,02,21,11,41,-0.20
2018,02,21,11,42,-0.20
2018,02,21,11,43,-0.20
2018,02,21,11,44,-0.20
2018,02,21,11,45,-0.20
2018,02,21,11,46,-0.20
2018,02,21,11,47,-0.20
2018,02,21,11,48,-0.20
2018,02,21,11,49,-0.20
2018,02,21,11,50,-0.20
2018,02,21,11,51,-0.20
2018,02,21,11,52,-0.20
2018,02,21,11,53,-0.20
2018,02,21,11,54,-0.20
2018,02,21,11,55,-0.20
2018,02,21,11,56,-0.20
2018,02,21,11,57,-0.10
2018,02,21,11,58,-0.10
2018,02,21,11,59,-0.10
2018,02,21,12,00,-0.10
2018,02,21,12,01,-0.20
2018,02,21,12,02,-0.20
2018,02,21,12,03,-0.20
2018,02,21,12,04,-0.20
2018,02,21,12,05,-0.20
2018,02,21,12,06,-0.20
2018,02,21,12,07,-0.20
2018,02,21,12,08,-0.20
2018,02,21,12,09,-0.20
2018,02,21,12,10,-0.20
2018,02,21,12,11,-0.20
2018,02,21,12,12,-0.20
2018,02,21,12,13,-0.20
2018,02,21,12,14,-0.20
2018,02,21,12,15,-0.20
2018,02,21,12,16,-0.20
2018,02,21,12,17,-0.20
2018,02,21,12,18,-0.20
2018,02,21,12,19,-0.20
2018,02,21,12,20,-0.20
2018,02,21,12,21,-0.20
2018,02,21,12,22,-0.20
2018,02,21,12,23,-0.20
2018,02,21,12,24,-0.20
2018,02,21,12,25,-0.20
2018,02,21,12,26,-0.20
2018,02,21,12,27,-0.30
2018,02,21,12,28,-0.30
2018,02,21,12,29,-0.30
2018,02,21,12,30,-0.30
2018,02,21,12,31,-0.30
2018,02,21,12,32,-0.30
2018,02,21,12,33,-0.40
2018,02,21,12,34,-0.40
2018,02,21,12,35,-0.40
2018,02,21,12,36,-0.40
2018,02,21,12,37,-0.40
2018,02,21,12,38,-0.40
2018,02,21,12,39,-0.40
2018,02,21,12,40,-0.50
2018,02,21,12,41,-0.50
2018,02,21,12,42,-0.50
2018,02,21,12,43,-0.50
2018,02,21,12,44,-0.50
2018,02,21,12,45,-0.50
2018,02,21,12,46,-0.50
2018,02,21,12,47,-0.60
2018,02,21,12,48,-0.60
2018,02,21,12,49,-0.60
2018,02,21,12,50,-0.60
2018,02,21,12,51,-0.60
2018,02,21,12,52,-0.60
2018,02,21,12,53,-0.60
2018,02,21,12,54,-0.60
2018,02,21,12,55,-0.60
2018,02,21,12,56,-0.70
2018,02,21,12,57,-0.70
2018,02,21,12,58,-0.70
2018,02,21,12,59,-0.70
2018,02,21,13,00,-0.70
2018,02,21,13,01,-0.70
2018,02,21,13,02,-0.70
2018,02,21,13,03,-0.70
2018,02,21,13,04,-0.70
2018,02,21,13,05,-0.70
2018,02,21,13,06,-0.80
2018,02,21,13,07,-0.70
2018,02,21,13,08,-0.70
2018,02,21,13,09,-0.70
2018,02,21,13,10,-0.70
2018,02,21,13,11,-0.70
2018,02,21,13,12,-0.70
2018,02,21,13,13,-0.60
2018,02,21,13,14,-0.60
2018,02,21,13,15,-0.50
2018,02,21,13,16,-0.40
2018,02,21,13,17,-0.40
2018,02,21,13,18,-0.30
2018,02,21,13,19,-0.30
2018,02,21,13,20,-0.30
2018,02,21,13,21,-0.30
2018,02,21,13,22,-0.20
2018,02,21,13,23,-0.20
2018,02,21,13,24,-0.20
2018,02,21,13,25,-0.20
2018,02,21,13,26,-0.20
2018,02,21,13,27,-0.20
2018,02,21,13,28,-0.20
2018,02,21,13,29,-0.20
2018,02,21,13,30,-0.20
2018,02,21,13,31,-0.20
2018,02,21,13,32,-0.20
2018,02,21,13,33,-0.20
2018,02,21,13,34,-0.20
2018,02,21,13,35,-0.20
2018,02,21,13,36,-0.20
2018,02,21,13,37,-0.30
2018,02,21,13,38,-0.30
2018,02,21,13,39,-0.30
2018,02,21,13,40,-0.30
2018,02,21,13,41,-0.30
2018,02,21,13,42,-0.40
2018,02,21,13,43,-0.40
2018,02,21,13,44,-0.40
2018,02,21,13,45,-0.40
2018,02,21,13,46,-0.40
2018,02,21,13,47,-0.40
2018,02,21,13,48,-0.40
2018,02,21,13,49,-0.40
2018,02,21,13,50,-0.40
2018,02,21,13,51,-0.50
2018,02,21,13,52,-0.50
2018,02,21,13,53,-0.50
2018,02,21,13,54,-0.50
2018,02,21,13,55,-0.60
2018,02,21,13,56,-0.60
2018,02,21,13,57,-0.70
2018,02,21,13,58,-0.70
2018,02,21,13,59,-0.80
2018,02,21,14,00,-0.80
2018,02,21,14,01,-0.90
2018,02,21,14,02,-0.90
2018,02,21,14,03,-0.90
2018,02,21,14,04,-1.00
2018,02,21,14,05,-1.00
2018,02,21,14,06,-1.00
2018,02,21,14,07,-1.00
2018,02,21,14,08,-1.00
2018,02,21,14,09,-1.00
2018,02,21,14,10,-1.00
2018,02,21,14,11,-1.10
2018,02,21,14,12,-1.10
2018,02,21,14,13,-1.10
2018,02,21,14,14,-1.10
2018,02,21,14,15,-1.10
2018,02,21,14,16,-1.10
2018,02,21,14,17,-1.10
2018,02,21,14,18,-1.10
2018,02,21,14,19,-1.10
2018,02,21,14,20,-1.10
2018,02,21,14,21,-1.10
2018,02,21,14,22,-1.10
2018,02,21,14,23,-1.00
2018,02,21,14,24,-1.00
2018,02,21,14,25,-1.10
2018,02,21,14,26,-1.10
2018,02,21,14,27,-1.10
2018,02,21,14,28,-1.10
2018,02,21,14,29,-1.10
2018,02,21,14,30,-1.10
2018,02,21,14,31,-1.20
2018,02,21,14,32,-1.10
2018,02,21,14,33,-1.10
2018,02,21,14,34,-1.10
2018,02,21,14,35,-1.10
2018,02,21,14,36,-1.10
2018,02,21,14,37,-1.10
2018,02,21,14,38,-1.10
2018,02,21,14,39,-1.10
2018,02,21,14,40,-1.10
2018,02,21,14,41,-1.10
2018,02,21,14,42,-1.10
2018,02,21,14,43,-1.10
2018,02,21,14,44,-1.10
2018,02,21,14,45,-1.10
2018,02,21,14,46,-1.20
2018,02,21,14,47,-1.20
2018,02,21,14,48,-1.20
2018,02,21,14,49,-1.20
2018,02,21,14,50,-1.20
2018,02,21,14,51,-1.20
2018,02,21,14,52,-1.20
2018,02,21,14,53,-1.20
2018,02,21,14,54,-1.20
2018,02,21,14,55,-1.30
2018,02,21,14,56,-1.30
2018,02,21,14,57,-1.30
2018,02,21,14,58,-1.30
2018,02,21,14,59,-1.30
2018,02,21,15,00,-1.30
2018,02,21,15,01,-1.30
2018,02,21,15,02,-1.30
2018,02,21,15,03,-1.20
2018,02,21,15,04,-1.20
2018,02,21,15,05,-1.20
2018,02,21,15,06,-1.20
2018,02,21,15,07,-1.20
2018,02,21,15,08,-1.20
2018,02,21,15,09,-1.20
2018,02,21,15,10,-1.20
2018,02,21,15,11,-1.20
2018,02,21,15,12,-1.20
2018,02,21,15,13,-1.20
2018,02,21,15,14,-1.20
2018,02,21,15,15,-1.20
2018,02,21,15,16,-1.20
2018,02,21,15,17,-1.20
2018,02,21,15,18,-1.20
2018,02,21,15,19,-1.20
2018,02,21,15,20,-1.20
2018,02,21,15,21,-1.20
2018,02,21,15,22,-1.20
2018,02,21,15,23,-1.20
2018,02,21,15,24,-1.20
2018,02,21,15,25,-1.20
2018,02,21,15,26,-1.20
2018,02,21,15,27,-1.20
2018,02,21,15,28,-1.20
2018,02,21,15,29,-1.20
2018,02,21,15,30,-1.20
2018,02,21,15,31,-1.20
2018,02,21,15,32,-1.20
2018,02,21,15,33,-1.20
2018,02,21,15,34,-1.20
2018,02,21,15,35,-1.20
2018,02,21,15,36,-1.20
2018,02,21,15,37,-1.20
2018,02,21,15,38,-1.10
2018,02,21,15,39,-1.10
2018,02,21,15,40,-1.10
2018,02,21,15,41,-1.10
2018,02,21,15,42,-1.20
2018,02,21,15,43,-1.20
2018,02,21,15,44,-1.20
2018,02,21,15,45,-1.10
2018,02,21,15,46,-1.10
2018,02,21,15,47,-1.10
2018,02,21,15,48,-1.10
2018,02,21,15,49,-1.10
2018,02,21,15,50,-1.10
2018,02,21,15,51,-1.10
2018,02,21,15,52,-1.10
2018,02,21,15,53,-1.10
2018,02,21,15,54,-1.10
2018,02,21,15,55,-1.10
2018,02,21,15,56,-1.10
2018,02,21,15,57,-1.10
2018,02,21,15,58,-1.10
2018,02,21,15,59,-1.10
2018,02,21,16,00,-1.10
2018,02,21,16,01,-1.10
2018,02,21,16,02,-1.10
2018,02,21,16,03,-1.10
2018,02,21,16,04,-1.10
2018,02,21,16,05,-1.10
2018,02,21,16,06,-1.10
2018,02,21,16,07,-1.10
2018,02,21,16,08,-1.10
2018,02,21,16,09,-1.10
2018,02,21,16,10,-1.10
2018,02,21,16,11,-1.10
2018,02,21,16,12,-1.10
2018,02,21,16,13,-1.10
2018,02,21,16,14,-1.10
2018,02,21,16,15,-1.10
2018,02,21,16,16,-1.10
2018,02,21,16,17,-1.10
2018,02,21,16,18,-1.10
2018,02,21,16,19,-1.10
2018,02,21,16,20,-1.10
2018,02,21,16,21,-1.10
2018,02,21,16,22,-1.10
2018,02,21,16,23,-1.10
2018,02,21,16,24,-1.10
2018,02,21,16,25,-1.10
2018,02,21,16,26,-1.10
2018,02,21,16,27,-1.10
2018,02,21,16,28,-1.10
2018,02,21,16,29,-1.10
2018,02,21,16,30,-1.10
2018,02,21,16,31,-1.10
2018,02,21,16,32,-1.10
2018,02,21,16,33,-1.10
2018,02,21,16,34,-1.10
2018,02,21,16,35,-1.10
2018,02,21,16,36,-1.10
2018,02,21,16,37,-1.10
2018,02,21,16,38,-1.10
2018,02,21,16,39,-1.10
2018,02,21,16,40,-1.10
2018,02,21,16,41,-1.10
2018,02,21,16,42,-1.10
2018,02,21,16,43,-1.10
2018,02,21,16,44,-1.10
2018,02,21,16,45,-1.10
2018,02,21,16,46,-1.10
2018,02,21,16,47,-1.10
2018,02,21,16,48,-1.10
2018,02,21,16,49,-1.10
2018,02,21,16,50,-1.10
2018,02,21,16,51,-1.10
2018,02,21,16,52,-1.10
2018,02,21,16,53,-1.10
2018,02,21,16,54,-1.10
2018,02,21,16,55,-1.10
2018,02,21,16,56,-1.10
2018,02,21,16,57,-1.10
2018,02,21,16,58,-1.10
2018,02,21,16,59,-1.10
2018,02,21,17,00,-1.10
2018,02,21,17,01,-1.10
2018,02,21,17,02,-1.10
2018,02,21,17,03,-1.10
2018,02,21,17,04,-1.10
2018,02,21,17,05,-1.10
2018,02,21,17,06,-1.10
2018,02,21,17,07,-1.10
2018,02,21,17,08,-1.10
2018,02,21,17,09,-1.10
2018,02,21,17,10,-1.10
2018,02,21,17,11,-1.10
2018,02,21,17,12,-1.10
2018,02,21,17,13,-1.10
2018,02,21,17,14,-1.10
2018,02,21,17,15,-1.00
2018,02,21,17,16,-1.00
2018,02,21,17,17,-1.00
2018,02,21,17,18,-1.00
2018,02,21,17,19,-1.00
2018,02,21,17,20,-1.00
2018,02,21,17,21,-1.00
2018,02,21,17,22,-1.00
2018,02,21,17,23,-1.00
2018,02,21,17,24,-1.00
2018,02,21,17,25,-1.00
2018,02,21,17,26,-1.00
2018,02,21,17,27,-1.00
2018,02,21,17,28,-0.90
2018,02,21,17,29,-0.90
2018,02,21,17,30,-0.90
2018,02,21,17,31,-0.90
2018,02,21,17,32,-0.90
2018,02,21,17,33,-0.90
2018,02,21,17,34,-0.90
2018,02,21,17,35,-0.90
2018,02,21,17,36,-0.90
2018,02,21,17,37,-0.90
2018,02,21,17,38,-0.90
2018,02,21,17,39,-0.90
2018,02,21,17,40,-0.90
2018,02,21,17,41,-0.90
2018,02,21,17,42,-0.90
2018,02,21,17,43,-0.90
2018,02,21,17,44,-0.90
2018,02,21,17,45,-0.90
2018,02,21,17,46,-0.90
2018,02,21,17,47,-0.90
2018,02,21,17,48,-0.90
2018,02,21,17,49,-0.90
2018,02,21,17,50,-0.90
2018,02,21,17,51,-0.90
2018,02,21,17,52,-0.90